Simultaneous Nadir Overpasses (SNOs) Predictions

Prediction of SNOs between AQUA and METOP-A Satellite Orbit:

Table of predicted SNOs for the next 14.0 days since TLE Epoch: 3/18/2016
Index Date (AQUA) Time (AQUA) Lat,Lon (AQUA) SZA (AQUA ) Date (METOP-A) Time (METOP-A) Lat,Lon (METOP-A) SZA (METOP-A ) Distance(km) Time Diff (sec)
1 03/18/2016 23:02:34 73.85,-171.38 74.39 03/18/2016 23:01:48 73.86,-171.40 74.42 1.59 46
2 03/18/2016 23:52:01 -73.92, -3.89 105.55 03/18/2016 23:52:29 -73.92, -3.94 105.55 1.34 28
3 03/21/2016 18:36:53 73.88,-105.02 73.30 03/21/2016 18:36:11 73.87,-104.98 73.30 1.46 42
4 03/21/2016 19:26:20 -73.94, 62.48 106.64 03/21/2016 19:26:52 -73.93, 62.50 106.66 1.17 32
5 03/24/2016 14:11:12 73.87, -38.58 72.18 03/24/2016 14:10:35 73.88, -38.56 72.19 1.18 37
6 03/24/2016 15:00:39 -73.93, 128.93 107.78 03/24/2016 15:01:16 -73.94, 128.93 107.76 1.73 37
7 03/27/2016 09:45:31 73.87, 27.83 71.07 03/27/2016 09:44:59 73.88, 27.85 71.08 0.87 32
8 03/27/2016 10:34:58 -73.93,-164.66 108.88 03/27/2016 10:35:40 -73.95,-164.66 108.87 2.15 42
9 03/30/2016 05:19:50 73.90, 94.20 69.99 03/30/2016 05:19:23 73.88, 94.25 69.98 2.52 27
10 03/30/2016 06:09:17 -73.95, -98.28 109.97 03/30/2016 06:10:04 -73.95, -98.25 109.97 0.88 47




NCC Satellite Simultaneous Nadir Overpasses (SNOs) Prediction Service
